Regional Weather Roundup
Issued by NWS Bismarck, ND

Home | Current Version | Previous Version | Text Only | Print | Product List | Glossary On
Versions: 1 2 3 4 5 6 7 8 9 10 11 12 13 14 15 16 17 18 19 20 21 22 23 24 25 26 27 28 29 30 31 32 33 34 35 36 37 38 39 40 41 42 43 44 45 46 47 48 49 50
000
ASUS43 KBIS 312202
RWRBIS

NWR BROADCAST TEXT
NATIONAL WEATHER SERVICE BISMARCK ND
500 PM CDT MON AUG 31 2015

NOTE: "FAIR" INDICATES FEW OR NO CLOUDS BELOW 12,000 FEET WITH NO
SIGNIFICANT WEATHER AND/OR OBSTRUCTIONS TO VISIBILITY.


CITY           SKY/WX    TMP DP  RH WIND       PRES   REMARKS
WILLISTON      SUNNY     78  33  19 W18G29    29.84F
MINOT          SUNNY     77  39  25 SW14      29.82S
MINOT AFB      SUNNY     80  39  22 W16G25    29.80S
BISMARCK       MOSUNNY   84  42  22 NW10      29.87S
DICKINSON      SUNNY     78  36  21 W13G24    29.89F
GARRISON         N/A     77  44  30 W16       29.87S
HETTINGER ARPT SUNNY     80  38  22 MISG      29.92F
JAMESTOWN      CLOUDY    78  54  43 NW5       29.85S
HAZEN          FAIR      77  41  27 W13G21    29.88S
OAKES            N/A     77  75  94 SW6       29.87R
STANLEY        FAIR      75  41  29 SW16G24   29.86R
$$

CITY           SKY/WX    TMP DP  RH WIND       PRES   REMARKS
GRAND FORKS    CLOUDY    81  57  43 W12       29.77S
GRAND FORKS AF CLOUDY    78  59  51 W10       29.79S
DEVILS LAKE    MOSUNNY   79  45  29 W15       29.81R
FARGO          CLOUDY    80  65  59 CALM      29.81R
CAVALIER       FAIR      82  50  32 W13G21    29.75S
GRAFTON        FAIR      81  55  41 W16       29.77S
GWINNER        FAIR      77  64  65 CALM      29.86R
LANGDON        FAIR      81  41  24 W18G30    29.80R
$$

CITY           SKY/WX    TMP DP  RH WIND       PRES   REMARKS
ABERDEEN       CLOUDY    77  64  64 NE6       29.86F
MOBRIDGE       CLOUDY    82  59  45 CALM      29.87F
BUFFALO          N/A     78  43  28 E7        29.87F
RAPID CITY     PTSUNNY   75  57  53 SE13      29.97F
GLASGOW        PTSUNNY   72  37  28 SW12      29.84F
SIDNEY         SUNNY     81  34  18 SW15G21   29.85S
WOLF POINT     PTSUNNY   75  40  28 W14       29.85F
GLENDIVE       SUNNY     81  36  19 W8G21     29.88F
MILES CITY     SUNNY     81  43  26 S9        29.87F
BAKER          SUNNY     79  42  26 SW9       29.92F
$$

CITY           SKY/WX    TMP DP  RH WIND       PRES   REMARKS
BILLINGS       PTSUNNY   80  34  19 VRB3      29.90F
GREAT FALLS    SUNNY     76  33  21 SW25      29.88F
$$




USA.gov is the U.S. government's official web portal to all federal, state and local government web resources and services.